Location: Isle of Man Observatory
(54.1776°N, 4.6264°W)
Time: 18:14:32
(UTC+01:00)

Envisat - Visible Passes

Search period start: 20 November 2017 00:00
Search period end: 30 November 2017 00:00
Orbit: 764 x 766 km, 98.2° (Epoch: 20 November)

Date Brightness Start Highest point End Pass type
(mag) Time Alt. Az. Time Alt. Az. Time Alt. Az.
20 Nov 4.4 19:12:49 20° NE 19:12:49 20° NE 19:15:32 10° N visible
20 Nov 4.5 20:53:02 28° NNW 20:53:02 28° NNW 20:55:23 10° NNW visible
21 Nov 4.8 18:35:46 13° NE 18:35:46 13° NE 18:37:48 10° NNE visible
21 Nov 4.2 20:15:58 29° N 20:15:58 29° N 20:18:33 10° N visible
21 Nov 5.6 21:56:11 16° NW 21:56:11 16° NW 21:57:19 10° NNW visible
22 Nov 6.1 08:13:04 10° ENE 08:14:26 11° E 08:15:47 10° E visible
22 Nov 4.3 19:38:55 24° NNE 19:38:55 24° NNE 19:41:30 10° N visible
22 Nov 5.0 21:19:07 22° NNW 21:19:07 22° NNW 21:20:56 10° NNW visible
23 Nov 4.6 19:01:51 17° NE 19:01:51 17° NE 19:04:12 10° N visible
23 Nov 4.6 20:42:03 26° NNW 20:42:03 26° NNW 20:44:15 10° NNW visible
23 Nov 6.0 22:22:16 10° NW 22:22:16 10° NW 22:22:23 10° NW visible
24 Nov 4.9 18:24:46 11° NE 18:24:46 11° NE 18:26:04 10° NNE visible
24 Nov 4.4 20:04:59 26° N 20:04:59 26° N 20:07:21 10° N visible
24 Nov 5.5 21:45:12 16° NW 21:45:12 16° NW 21:46:21 10° NNW visible
25 Nov 4.4 19:27:55 21° NNE 19:27:55 21° NNE 19:30:16 10° N visible
25 Nov 5.0 21:08:07 21° NNW 21:08:07 21° NNW 21:09:51 10° NNW visible
26 Nov 4.7 18:50:50 15° NE 18:50:50 15° NE 18:52:49 10° NNE visible
26 Nov 4.6 20:31:03 25° N 20:31:03 25° N 20:33:06 10° NNW visible
26 Nov 5.9 22:11:15 11° NW 22:11:15 11° NW 22:11:33 10° NW visible
27 Nov 5.8 08:26:22 10° NE 08:29:10 15° E 08:31:58 10° ESE visible
27 Nov 4.5 19:53:58 23° NNE 19:53:58 23° NNE 19:56:09 10° N visible
27 Nov 5.4 21:34:10 16° NNW 21:34:10 16° NNW 21:35:20 10° NNW visible
28 Nov 4.6 19:16:53 19° NNE 19:16:53 19° NNE 19:18:58 10° N visible
28 Nov 5.0 20:57:05 21° NNW 20:57:05 21° NNW 20:58:45 10° NNW visible
29 Nov 4.8 18:39:47 13° NE 18:39:47 13° NE 18:41:21 10° NNE visible
29 Nov 4.6 20:20:00 23° N 20:20:00 23° N 20:21:56 10° N visible
29 Nov 5.8 22:00:12 12° NW 22:00:12 12° NW 22:00:37 10° NW visible
